sat.trackr.live / text

‹ back to catalog

STARLINK-35945

NORAD 66925 · 2025-286A

PAYLOAD ACTIVE UNKNOWN

§ Identity

Operator
Country
US
Launch date
2025-12-07
Launch site
AFWTR
Launch vehicle
Mass (kg)
RCS (m²)

Purposes: comms

External: N2YO · Heavens-Above · Gunter

§ Orbital elements

Epoch: 2026-05-25T00:17:03.109056Z

Period
93.85 min
Inclination
53.1609°
Eccentricity
0.0001395
Mean motion
15.34403584 rev/d
Perigee alt
461.7 km
Apogee alt
463.6 km
Semi-major
6,840.8 km
B*
7.1185e-4
RAAN
3.8240°
Arg perigee
86.1961°
Mean anomaly
273.9201°
Rev number
2,710

§ Raw data

STARLINK-359451 66925U 25286A   26145.01184154  .00023754  00000+0  71185-3 0  99982 66925  53.1609   3.8240 0001395  86.1961 273.9201 15.34403584 27101

JSON: /api/v1/satellites/66925 · /tle

For live sub-satellite position, see the globe view (requires WebGL).

§ Visibility from observer

Set your observer location to see the next 7 days of passes ≥ 10°. The values pass through the URL so the page stays shareable.

No JS? Fill the form by hand. The geolocation button needs JavaScript.